Weather Roundup
Issued by NWS Chicago, IL

Home | Current Version | Previous Version | Text Only | Print | Product List | Glossary Off
Versions: 1 2 3 4 5 6 7 8 9 10 11 12 13 14 15 16 17 18 19 20 21 22 23 24 25 26 27 28 29 30 31 32 33 34 35 36 37 38 39 40 41 42 43 44 45 46 47 48 49 50

000
NZUS59 KLOT 311403
HRRLOT

CHICAGO AREA WEATHER ROUNDUP
NATIONAL WEATHER SERVICE CHICAGO/ROMEOVILLE IL
900 AM CDT TUE MAY 31 2016

NOTE: "FAIR" INDICATES FEW OR NO CLOUDS BELOW 12,000 FEET WITH NO
SIGNIFICANT WEATHER AND/OR OBSTRUCTIONS TO VISIBILITY.

* THESE STATIONS ARE NOT UNDER NWS QUALITY CONTROL. THEY ALSO MAY NOT
  REPORT WEATHER SUCH AS PRECIPITATION OR FOG.

ILZ005-006-012>014-019>023-311500-
NORTHEAST ILLINOIS

CITY           SKY/WX    TMP DP  RH WIND       PRES   REMARKS
OHARE          PTSUNNY   76  55  48 E10       30.01R
MIDWAY         CLOUDY    75  57  53 SE6       30.00S
AURORA         CLOUDY    75  60  59 E10       30.00F
LANSING*       CLOUDY    74  59  58 SE6       30.01S
WAUKEGAN       MOSUNNY   70  54  56 E7        30.02S
DUPAGE AIRPORT CLOUDY    75  57  53 E8        30.00S
WHEELING       MOSUNNY   73  53  49 E7        30.02S
MORRIS*        CLOUDY    74  57  55 SE12      29.98S
$$

WIZ051-052-058>065-066-070>072-311500-
SOUTHEAST WISCONSIN

CITY           SKY/WX    TMP DP  RH WIND       PRES   REMARKS
MILWAUKEE      MOSUNNY   62  55  77 NE10      30.04R
KENOSHA*       MOSUNNY   70  54  56 E10       30.03S
RACINE*        MOSUNNY   69  53  56 E8        30.05R
BURLINGTON     SUNNY     72  52  49 SE13      30.02S
WAUKESHA       SUNNY     70  50  49 E13       30.03S
$$

INZ001>003-010>013-019-020-311500-
NORTHWEST INDIANA

CITY           SKY/WX    TMP DP  RH WIND       PRES   REMARKS
GARY*          PTSUNNY   75  64  69 SE12      30.02R
MICHIGAN CITY* NOT AVBL
RENSSELAER*    NOT AVBL
VALPARAISO     CLOUDY    73  58  59 E7        30.02S
$$

LMZ740>746-311500-
SOUTHERN LAKE MICHIGAN

STATION/POSITION TIME  SKY/WX   TEMP WIND        PRES    VSBY
                                AIR  DIR/SP/G
                 (UTC)          (F)  (DEG/KT/KT) (MB)    (MI)
HARRISON CRIB    1300            65  100/  8/  8   N/A
BURNHAM HARBOR   1400            67   40/  3/  4   N/A
CALUMET HARBOR   1300            66  100/  5/  7 1015.5R
BURNS HARBOR     1300            72  100/  7/ 14 1016.6S
MICHIGAN CITY    1300            70   90/  9/ 10   N/A
$$

ABBREVIATIONS USED IN REMARKS
   TC - TEMPERATURE IN CELSIUS
  WCI - WIND CHILL INDEX
   HX - HEAT INDEX
  VSB - VISIBILITY
$$



USA.gov is the U.S. government's official web portal to all federal, state and local government web resources and services.